FENGYUN 1C DEB

Satellite information

Favourite Embed

Satellite Type and Status

DEBRISIN ORBIT

Key statistics

Satellite FENGYUN 1C DEB at a glance.

Uptime

9498

Days in orbit

Revolutions

≈ 14.6

Per day

Orbit

SSO

Sun Synchronous Orbit

Inclination

98.9

Latest

Satellite identification and parameters

Extended collection of information and parameters for FENGYUN 1C DEB.

Object identification

Identified? True

Debris? True

Object name: FENGYUN 1C DEB

International designator: 1999-025BPF

Object number (NORAD): 31297

Object ID (CCSDS): 31297

Country: PEOPLES REPUBLIC OF CHINA (PRC)

Current information (Y/N): Y

RCS size: SMALL

Orbital parameters

Period: 98.895 minutes

Inclination: 98.9068 deg

SMA: 7083.945 km

Apoapsis: 806.381 km

Periapsis: 605.239 km

RAAN: 250.5548 deg

Eccentricy: 0.014197

Argument of periapsis: 65.2218 deg

Mean anomaly: 61.4493 deg

Mean motion: 14.56095887 rev/day

Mean motion (dot): 0.00001906 rev/day2

B* drag term: 0.00038877 1/REarth

Two-line elements (TLE)

Creation date: May 9, 2025, 5:15 p.m.

Reference frame: TEME

Reference center: EARTH

Epoch: May 8, 2025, 8:57 p.m. UTC

TLE line 0: 0 FENGYUN 1C DEB

TLE line 1: 1 31297U 99025BPF 25128.87335177 .00001906 00000-0 38877-3 0 9998

TLE line 2: 2 31297 98.9068 250.5548 0141970 65.2218 61.4493 14.56095887961443

Live tracking on map

Real-time ground track for satellite FENGYUN 1C DEB.

In-orbit conjunctions

A list of the most updated potential collisions computed for object FENGYUN 1C DEB.

Target Orbit TCA Probability of collision Miss distance Type
SSU 1 LEO 2025-03-25 22:40:43 0.002107934 318.0 (m) PAYLOAD

Associated space launch

Chinese polar orbiting meteorological satellite

FENGYUN 1C DEB was lifted into orbit during the mission ‘Long March 4B | Feng Yun 1C’, on board a Long March 4B space rocket.

The launch took place on May 10, 1999, 1:33 a.m. from Launch Complex 7.

For more information about the launch, click the button.

Launch to space Long March 4B | Feng Yun 1C
Long March 4B | Feng Yun 1C

Agency: N/A

Status: Launch Successful

Launch date: May 10, 1999, 1:33 a.m. UTC

Rocket: Long March 4B

Launch pad: Launch Complex 7

Location: Taiyuan Satellite Launch Center, People's Republic of China

...

Latest news about this satellite

There are no fresh news available about this satellite. Check back as we update our databases every day.


Newsletter sign-up

Weekly statistics, charts and insights to help you stay on top of the space industry.